Location: Unspecified
(0.0000°N, 0.0000°E)
Time: 10:23:37
(UTC+00:00)

Courier 1B - All Passes

Search period start: 24 April 2018 00:00
Search period end: 04 May 2018 00:00
Orbit: 962 x 1209 km, 28.3° (Epoch: 23 April)

Date Brightness Start Highest point End Pass type
(mag) Time Alt. Az. Time Alt. Az. Time Alt. Az.
24 Apr - 03:05:42 10° NNW 03:10:26 19° NNE 03:15:20 10° ENE visible
24 Apr - 04:57:47 10° NW 05:05:00 61° NNE 05:12:37 10° ESE visible
24 Apr - 06:52:20 10° W 06:59:26 43° SSW 07:06:49 10° SE daylight
24 Apr - 08:50:30 10° SW 08:54:38 15° SSW 08:58:46 10° S daylight
24 Apr - 14:40:03 10° SSW 14:44:18 16° SSE 14:48:24 10° ESE daylight
24 Apr - 16:32:16 10° SW 16:39:06 50° SSE 16:45:32 10° ENE daylight
24 Apr - 18:26:46 10° W 18:33:11 45° NNW 18:39:21 10° NE visible
24 Apr - 20:25:05 10° NW 20:27:43 12° NNW 20:30:18 10° N visible
25 Apr - 02:13:12 10° N 02:16:20 13° NNE 02:19:32 10° NE visible
25 Apr - 04:04:18 10° NW 04:11:04 44° NNE 04:18:13 10° E visible
25 Apr - 05:58:08 10° WNW 06:05:25 58° SSW 06:13:04 10° SE daylight
25 Apr - 07:55:04 10° WSW 08:00:20 19° SSW 08:05:41 10° SSE daylight
25 Apr - 13:47:11 10° S 13:50:04 12° SSE 13:52:54 10° SE daylight
25 Apr - 15:38:38 10° SW 15:45:12 37° SSE 15:51:25 10° E daylight
25 Apr - 17:32:32 10° WSW 17:39:25 64° NNW 17:45:56 10° NE daylight
25 Apr - 19:29:28 10° WNW 19:33:43 18° NNW 19:37:53 10° NNE visible
26 Apr - 03:11:02 10° NNW 03:17:08 32° NNE 03:23:34 10° E visible
26 Apr - 05:04:10 10° WNW 05:11:27 78° SSW 05:19:11 10° SE visible
26 Apr - 07:00:05 10° WSW 07:06:08 25° SSW 07:12:22 10° SSE daylight
26 Apr - 14:45:04 10° SSW 14:51:13 28° SSE 14:57:03 10° E daylight
26 Apr - 16:38:28 10° WSW 16:45:38 89° NNW 16:52:21 10° ENE daylight
26 Apr - 18:34:25 10° W 18:39:48 25° NNW 18:45:01 10° NNE visible
27 Apr - 02:17:58 10° NNW 02:23:12 23° NNE 02:28:39 10° ENE visible
27 Apr - 04:10:27 10° NW 04:17:32 78° NNE 04:25:07 10° ESE visible
27 Apr - 06:05:29 10° W 06:12:00 33° SSW 06:18:51 10° SE daylight
27 Apr - 08:04:51 10° SW 08:07:27 12° SSW 08:10:04 10° S daylight
27 Apr - 13:51:40 10° SSW 13:57:08 21° SSE 14:02:22 10° ESE daylight
27 Apr - 15:44:31 10° SW 15:51:48 67° SSE 15:58:36 10° ENE daylight
27 Apr - 17:39:42 10° W 17:45:57 35° NNW 17:51:55 10° NE daylight
28 Apr - 01:25:12 10° NNW 01:29:12 16° NNE 01:33:19 10° ENE night (unlit)
28 Apr - 03:16:54 10° NW 03:23:40 56° NNE 03:30:53 10° ESE visible
28 Apr - 05:11:10 10° W 05:17:59 44° SSW 05:25:12 10° SE visible
28 Apr - 07:08:57 10° SW 07:13:05 15° SSW 07:17:19 10° SSE daylight
28 Apr - 12:58:25 10° SSW 13:02:56 16° SSE 13:07:20 10° ESE daylight
28 Apr - 14:50:43 10° SW 14:57:54 49° SSE 15:04:39 10° ENE daylight
28 Apr - 16:45:14 10° WSW 16:52:08 49° NNW 16:58:37 10° NE daylight
28 Apr - 18:43:17 10° NW 18:46:38 14° NNW 18:49:54 10° N visible
29 Apr - 00:33:11 10° N 00:35:08 11° NNE 00:37:07 10° NE night (unlit)
29 Apr - 02:23:32 10° NW 02:29:49 40° NNE 02:36:28 10° E visible
29 Apr - 04:17:06 10° WNW 04:24:01 60° SSW 04:31:26 10° SE visible
29 Apr - 06:13:42 10° WSW 06:18:50 20° SSW 06:24:09 10° SSE daylight
29 Apr - 12:05:29 10° S 12:08:37 13° SSE 12:11:43 10° SE daylight
29 Apr - 13:57:02 10° SW 14:03:55 36° SSE 14:10:27 10° E daylight
29 Apr - 15:50:57 10° WSW 15:58:18 70° NNW 16:05:10 10° NE daylight
29 Apr - 17:47:45 10° WNW 17:52:38 20° NNW 17:57:20 10° NNE daylight
30 Apr - 01:30:22 10° NNW 01:35:57 28° NNE 01:41:49 10° E night (unlit)
30 Apr - 03:23:16 10° WNW 03:30:08 82° SSW 03:37:31 10° ESE visible
30 Apr - 05:18:54 10° W 05:24:41 26° SSW 05:30:46 10° SSE visible
30 Apr - 13:03:28 10° SSW 13:09:51 28° SSE 13:15:58 10° E daylight
30 Apr - 14:56:51 10° WSW 15:04:26 86° SSE 15:11:31 10° ENE daylight
30 Apr - 16:52:43 10° W 16:58:42 28° NNW 17:04:24 10° NNE daylight
01 May - 00:37:23 10° NNW 00:42:04 20° NNE 00:46:52 10° ENE night (unlit)
01 May - 02:29:37 10° NW 02:36:19 73° NNE 02:43:28 10° ESE visible
01 May - 04:24:25 10° W 04:30:39 34° SSW 04:37:14 10° SE visible
01 May - 06:23:30 10° SW 06:25:57 12° SSW 06:28:26 10° S daylight
01 May - 12:10:04 10° SSW 12:15:41 21° SSE 12:21:10 10° ESE daylight
01 May - 14:02:53 10° SW 14:10:31 64° SSE 14:17:40 10° ENE daylight
01 May - 15:58:00 10° W 16:04:48 39° NNW 16:11:12 10° NE daylight
01 May - 17:57:33 10° NW 17:59:34 11° NNW 18:01:33 10° N daylight
01 May - 23:44:46 10° N 23:48:06 14° NNE 23:51:28 10° NE night (unlit)
02 May - 01:36:09 10° NW 01:42:32 51° NNE 01:49:15 10° ESE night (unlit)
02 May - 03:30:13 10° W 03:36:42 45° SSW 03:43:36 10° SE visible
02 May - 05:27:44 10° SW 05:31:39 15° SSW 05:35:41 10° SSE visible
02 May - 11:16:51 10° SSW 11:21:26 16° SSE 11:25:57 10° ESE daylight
02 May - 13:09:05 10° SW 13:16:31 47° SSE 13:23:36 10° E daylight
02 May - 15:03:31 10° WSW 15:10:54 54° NNW 15:17:50 10° NE daylight
02 May - 17:01:15 10° WNW 17:05:27 16° NNW 17:09:32 10° NNE daylight
03 May - 00:42:50 10° NW 00:48:45 36° NNE 00:54:53 10° E night (unlit)
03 May - 02:36:15 10° WNW 02:42:50 63° SSW 02:49:52 10° SE visible
03 May - 04:32:37 10° WSW 04:37:28 20° SSW 04:42:32 10° SSE visible
03 May - 10:24:03 10° S 10:27:04 12° SSE 10:30:06 10° SE daylight
03 May - 12:15:26 10° SW 12:22:28 35° SSE 12:29:16 10° E daylight
03 May - 14:09:14 10° WSW 14:16:59 75° NNW 14:24:16 10° NE daylight
03 May - 16:05:51 10° WNW 16:11:25 23° NNW 16:16:45 10° NNE daylight
